Time,TemperatureF,DewpointF,PressureIn,WindDirection,WindDirectionDegrees,WindSpeedMPH,WindSpeedGustMPH,Humidity,HourlyPrecipIn,Conditions,Clouds,dailyrainin,SolarRadiationWatts/m^2,SoftwareType,DateUTC
2013-01-16 00:11:00,40.9,31.0,30.43,NNE,14,0.0,2.0,68,0.00,,,0.00,0,weatherlink.com 1.10,2013-01-16 08:11:00,
2013-01-16 00:26:00,41.3,31.0,30.43,North,9,1.0,2.0,68,0.00,,,0.00,0,weatherlink.com 1.10,2013-01-16 08:26:00,
2013-01-16 00:41:00,40.7,32.0,30.43,North,9,0.0,1.0,70,0.00,,,0.00,0,weatherlink.com 1.10,2013-01-16 08:41:00,
2013-01-16 00:56:00,39.9,31.0,30.43,North,9,0.0,1.0,71,0.00,,,0.00,0,weatherlink.com 1.10,2013-01-16 08:56:00,
2013-01-16 01:11:00,39.7,31.0,30.43,North,9,0.0,2.0,72,0.00,,,0.00,0,weatherlink.com 1.10,2013-01-16 09:11:00,
2013-01-16 01:26:00,40.0,31.0,30.44,North,9,0.0,1.0,71,0.00,,,0.00,0,weatherlink.com 1.10,2013-01-16 09:26:00,
2013-01-16 01:41:00,39.8,31.0,30.44,North,5,0.0,2.0,72,0.00,,,0.00,0,weatherlink.com 1.10,2013-01-16 09:41:00,
2013-01-16 01:56:00,39.5,32.0,30.44,North,5,1.0,2.0,73,0.00,,,0.00,0,weatherlink.com 1.10,2013-01-16 09:56:00,
2013-01-16 02:11:00,39.6,32.0,30.44,North,360,2.0,3.0,73,0.00,,,0.00,0,weatherlink.com 1.10,2013-01-16 10:11:00,
2013-01-16 02:26:00,39.7,32.0,30.44,North,360,1.0,2.0,73,0.00,,,0.00,0,weatherlink.com 1.10,2013-01-16 10:26:00,
2013-01-16 02:41:00,39.7,32.0,30.43,North,355,0.0,2.0,73,0.00,,,0.00,0,weatherlink.com 1.10,2013-01-16 10:41:00,
2013-01-16 02:56:00,39.5,32.0,30.43,North,5,3.0,3.0,73,0.00,,,0.00,0,weatherlink.com 1.10,2013-01-16 10:56:00,
2013-01-16 03:11:00,39.2,32.0,30.43,North,360,0.0,2.0,74,0.00,,,0.00,0,weatherlink.com 1.10,2013-01-16 11:11:00,
2013-01-16 03:26:00,39.2,32.0,30.43,North,360,0.0,1.0,74,0.00,,,0.00,0,weatherlink.com 1.10,2013-01-16 11:26:00,
2013-01-16 03:41:00,39.4,32.0,30.43,North,360,1.0,2.0,74,0.00,,,0.00,0,weatherlink.com 1.10,2013-01-16 11:41:00,
2013-01-16 03:56:00,39.3,32.0,30.43,North,5,0.0,3.0,74,0.00,,,0.00,0,weatherlink.com 1.10,2013-01-16 11:56:00,
2013-01-16 04:11:00,39.1,32.0,30.43,North,355,0.0,3.0,75,0.00,,,0.00,0,weatherlink.com 1.10,2013-01-16 12:11:00,
2013-01-16 04:26:00,39.5,32.0,30.42,NNE,17,2.0,3.0,74,0.00,,,0.00,0,weatherlink.com 1.10,2013-01-16 12:26:00,
2013-01-16 04:41:00,39.3,32.0,30.42,North,360,0.0,4.0,74,0.00,,,0.00,0,weatherlink.com 1.10,2013-01-16 12:41:00,
2013-01-16 04:56:00,39.1,32.0,30.41,North,351,0.0,3.0,75,0.00,,,0.00,0,weatherlink.com 1.10,2013-01-16 12:56:00,
2013-01-16 05:11:00,38.9,32.0,30.41,North,5,0.0,2.0,76,0.00,,,0.00,0,weatherlink.com 1.10,2013-01-16 13:11:00,
2013-01-16 05:26:00,38.9,32.0,30.40,North,11,0.0,2.0,75,0.00,,,0.00,0,weatherlink.com 1.10,2013-01-16 13:26:00,
2013-01-16 05:41:00,39.1,31.0,30.40,North,349,2.0,3.0,74,0.00,,,0.00,0,weatherlink.com 1.10,2013-01-16 13:41:00,
2013-01-16 05:56:00,39.2,31.0,30.40,North,360,1.0,1.0,73,0.00,,,0.00,0,weatherlink.com 1.10,2013-01-16 13:56:00,
2013-01-16 06:11:00,39.2,31.0,30.40,North,355,0.0,3.0,73,0.00,,,0.00,0,weatherlink.com 1.10,2013-01-16 14:11:00,
2013-01-16 06:26:00,39.3,31.0,30.40,North,355,0.0,3.0,72,0.00,,,0.00,0,weatherlink.com 1.10,2013-01-16 14:26:00,
2013-01-16 06:41:00,39.1,31.0,30.40,ENE,58,0.0,1.0,72,0.00,,,0.00,0,weatherlink.com 1.10,2013-01-16 14:41:00,
2013-01-16 06:56:00,38.6,31.0,30.40,ENE,58,0.0,1.0,74,0.00,,,0.00,0,weatherlink.com 1.10,2013-01-16 14:56:00,
2013-01-16 07:11:00,37.8,31.0,30.40,ENE,58,0.0,1.0,76,0.00,,,0.00,0,weatherlink.com 1.10,2013-01-16 15:11:00,
2013-01-16 07:26:00,37.5,31.0,30.41,ENE,58,0.0,1.0,77,0.00,,,0.00,5,weatherlink.com 1.10,2013-01-16 15:26:00,
2013-01-16 07:41:00,37.3,31.0,30.41,ENE,58,1.0,1.0,78,0.00,,,0.00,12,weatherlink.com 1.10,2013-01-16 15:41:00,
2013-01-16 07:56:00,37.7,31.0,30.41,ENE,58,0.0,1.0,78,0.00,,,0.00,23,weatherlink.com 1.10,2013-01-16 15:56:00,
2013-01-16 08:11:00,38.5,32.0,30.41,ENE,58,0.0,0.0,78,0.00,,,0.00,79,weatherlink.com 1.10,2013-01-16 16:11:00,
2013-01-16 08:27:00,41.3,34.0,30.41,ENE,58,0.0,1.0,74,0.00,,,0.00,128,weatherlink.com 1.10,2013-01-16 16:27:00,
2013-01-16 08:42:00,44.3,34.0,30.42,ENE,58,0.0,1.0,68,0.00,,,0.00,186,weatherlink.com 1.10,2013-01-16 16:42:00,
2013-01-16 08:57:00,45.8,35.0,30.42,ENE,58,0.0,1.0,65,0.00,,,0.00,237,weatherlink.com 1.10,2013-01-16 16:57:00,
2013-01-16 09:12:00,47.1,35.0,30.42,East,101,0.0,3.0,62,0.00,,,0.00,285,weatherlink.com 1.10,2013-01-16 17:12:00,
2013-01-16 09:27:00,49.1,36.0,30.43,East,101,0.0,1.0,61,0.00,,,0.00,316,weatherlink.com 1.10,2013-01-16 17:27:00,
2013-01-16 09:42:00,50.2,36.0,30.42,SSE,167,1.0,2.0,59,0.00,,,0.00,359,weatherlink.com 1.10,2013-01-16 17:42:00,
2013-01-16 09:57:00,52.0,37.0,30.42,SSE,167,1.0,3.0,57,0.00,,,0.00,401,weatherlink.com 1.10,2013-01-16 17:57:00,
2013-01-16 10:12:00,52.8,39.0,30.41,SSE,167,0.0,1.0,59,0.00,,,0.00,434,weatherlink.com 1.10,2013-01-16 18:12:00,
2013-01-16 10:27:00,52.5,37.0,30.40,NNE,23,1.0,3.0,57,0.00,,,0.00,464,weatherlink.com 1.10,2013-01-16 18:27:00,
2013-01-16 10:42:00,54.6,36.0,30.40,ESE,119,2.0,2.0,49,0.00,,,0.00,492,weatherlink.com 1.10,2013-01-16 18:42:00,
2013-01-16 10:57:00,56.8,34.0,30.39,SE,146,1.0,4.0,43,0.00,,,0.00,522,weatherlink.com 1.10,2013-01-16 18:57:00,
2013-01-16 11:12:00,58.1,33.0,30.38,SE,135,2.0,5.0,39,0.00,,,0.00,543,weatherlink.com 1.10,2013-01-16 19:12:00,
2013-01-16 11:27:00,58.8,34.0,30.38,ESE,109,1.0,4.0,40,0.00,,,0.00,561,weatherlink.com 1.10,2013-01-16 19:27:00,
2013-01-16 11:42:00,59.6,34.0,30.37,SE,143,3.0,7.0,38,0.00,,,0.00,577,weatherlink.com 1.10,2013-01-16 19:42:00,
2013-01-16 11:57:00,59.8,33.0,30.36,East,88,2.0,5.0,36,0.00,,,0.00,585,weatherlink.com 1.10,2013-01-16 19:57:00,
2013-01-16 12:13:00,58.4,33.0,30.34,NNE,12,1.0,7.0,39,0.00,,,0.00,589,weatherlink.com 1.10,2013-01-16 20:13:00,
2013-01-16 12:28:00,59.3,35.0,30.33,WSW,240,1.0,4.0,40,0.00,,,0.00,589,weatherlink.com 1.10,2013-01-16 20:28:00,
2013-01-16 12:43:00,59.2,34.0,30.32,SSE,155,2.0,9.0,39,0.00,,,0.00,589,weatherlink.com 1.10,2013-01-16 20:43:00,
2013-01-16 12:58:00,60.0,35.0,30.31,WSW,238,0.0,5.0,39,0.00,,,0.00,578,weatherlink.com 1.10,2013-01-16 20:58:00,
2013-01-16 13:13:00,60.3,36.0,30.31,ESE,115,1.0,5.0,40,0.00,,,0.00,570,weatherlink.com 1.10,2013-01-16 21:13:00,
2013-01-16 13:28:00,60.8,36.0,30.31,SE,127,1.0,6.0,40,0.00,,,0.00,561,weatherlink.com 1.10,2013-01-16 21:28:00,
2013-01-16 13:43:00,60.8,37.0,30.30,East,94,0.0,5.0,41,0.00,,,0.00,540,weatherlink.com 1.10,2013-01-16 21:43:00,
2013-01-16 13:58:00,60.3,34.0,30.30,SSE,149,1.0,5.0,37,0.00,,,0.00,517,weatherlink.com 1.10,2013-01-16 21:58:00,
2013-01-16 14:13:00,60.7,34.0,30.30,ESE,111,2.0,7.0,37,0.00,,,0.00,497,weatherlink.com 1.10,2013-01-16 22:13:00,
2013-01-16 14:28:00,59.9,33.0,30.30,SE,133,2.0,4.0,37,0.00,,,0.00,462,weatherlink.com 1.10,2013-01-16 22:28:00,
2013-01-16 14:43:00,60.6,33.0,30.30,ESE,113,0.0,3.0,36,0.00,,,0.00,436,weatherlink.com 1.10,2013-01-16 22:43:00,
2013-01-16 14:58:00,61.0,34.0,30.30,South,187,1.0,4.0,36,0.00,,,0.00,399,weatherlink.com 1.10,2013-01-16 22:58:00,
2013-01-16 15:13:00,61.2,33.0,30.30,East,98,0.0,3.0,35,0.00,,,0.00,359,weatherlink.com 1.10,2013-01-16 23:13:00,
2013-01-16 15:28:00,60.7,31.0,30.30,North,11,2.0,3.0,33,0.00,,,0.00,322,weatherlink.com 1.10,2013-01-16 23:28:00,
2013-01-16 15:43:00,60.2,32.0,30.30,ESE,121,0.0,4.0,34,0.00,,,0.00,272,weatherlink.com 1.10,2013-01-16 23:43:00,
2013-01-16 15:58:00,58.8,31.0,30.29,SE,133,0.0,5.0,35,0.00,,,0.00,207,weatherlink.com 1.10,2013-01-16 23:58:00,
2013-01-16 16:13:00,57.9,30.0,30.29,SE,143,0.0,6.0,34,0.00,,,0.00,155,weatherlink.com 1.10,2013-01-17 00:13:00,
2013-01-16 16:28:00,57.4,31.0,30.29,North,360,0.0,3.0,37,0.00,,,0.00,98,weatherlink.com 1.10,2013-01-17 00:28:00,
2013-01-16 16:43:00,57.5,32.0,30.28,ENE,78,0.0,2.0,38,0.00,,,0.00,54,weatherlink.com 1.10,2013-01-17 00:43:00,
2013-01-16 16:58:00,56.7,31.0,30.29,SSE,154,1.0,4.0,38,0.00,,,0.00,19,weatherlink.com 1.10,2013-01-17 00:58:00,
2013-01-16 17:13:00,55.2,31.0,30.29,ESE,106,0.0,3.0,40,0.00,,,0.00,5,weatherlink.com 1.10,2013-01-17 01:13:00,
2013-01-16 17:28:00,53.6,31.0,30.28,NE,48,0.0,2.0,43,0.00,,,0.00,0,weatherlink.com 1.10,2013-01-17 01:28:00,
2013-01-16 17:43:00,51.6,32.0,30.28,NE,48,0.0,1.0,48,0.00,,,0.00,0,weatherlink.com 1.10,2013-01-17 01:43:00,
2013-01-16 17:58:00,49.6,31.0,30.28,NE,48,1.0,3.0,49,0.00,,,0.00,0,weatherlink.com 1.10,2013-01-17 01:58:00,
2013-01-16 18:13:00,48.3,31.0,30.28,North,355,0.0,3.0,51,0.00,,,0.00,0,weatherlink.com 1.10,2013-01-17 02:13:00,
2013-01-16 18:28:00,47.8,30.0,30.28,North,355,0.0,1.0,51,0.00,,,0.00,0,weatherlink.com 1.10,2013-01-17 02:28:00,
2013-01-16 18:43:00,47.7,29.0,30.28,North,355,0.0,0.0,49,0.00,,,0.00,0,weatherlink.com 1.10,2013-01-17 02:43:00,
2013-01-16 18:58:00,47.6,29.0,30.28,North,355,0.0,2.0,48,0.00,,,0.00,0,weatherlink.com 1.10,2013-01-17 02:58:00,
2013-01-16 19:28:00,48.0,27.0,30.27,North,355,2.0,2.0,45,0.00,,,0.00,0,weatherlink.com 1.10,2013-01-17 03:28:00,
2013-01-16 19:43:00,48.7,27.0,30.27,North,355,0.0,3.0,44,0.00,,,0.00,0,weatherlink.com 1.10,2013-01-17 03:43:00,
2013-01-16 19:58:00,47.9,29.0,30.27,North,355,0.0,1.0,48,0.00,,,0.00,0,weatherlink.com 1.10,2013-01-17 03:58:00,
2013-01-16 20:13:00,46.5,30.0,30.27,North,355,0.0,1.0,52,0.00,,,0.00,0,weatherlink.com 1.10,2013-01-17 04:13:00,
2013-01-16 20:28:00,45.8,28.0,30.27,North,355,0.0,1.0,50,0.00,,,0.00,0,weatherlink.com 1.10,2013-01-17 04:28:00,
2013-01-16 20:43:00,45.5,29.0,30.27,North,355,0.0,1.0,52,0.00,,,0.00,0,weatherlink.com 1.10,2013-01-17 04:43:00,
2013-01-16 20:58:00,44.9,29.0,30.27,North,355,0.0,2.0,53,0.00,,,0.00,0,weatherlink.com 1.10,2013-01-17 04:58:00,
2013-01-16 21:13:00,44.5,27.0,30.27,North,355,0.0,1.0,51,0.00,,,0.00,0,weatherlink.com 1.10,2013-01-17 05:13:00,
2013-01-16 21:28:00,45.0,27.0,30.26,North,355,2.0,2.0,50,0.00,,,0.00,0,weatherlink.com 1.10,2013-01-17 05:28:00,
2013-01-16 21:43:00,45.4,26.0,30.26,North,355,0.0,2.0,47,0.00,,,0.00,0,weatherlink.com 1.10,2013-01-17 05:43:00,
2013-01-16 21:58:00,47.0,26.0,30.26,SE,138,0.0,3.0,45,0.00,,,0.00,0,weatherlink.com 1.10,2013-01-17 05:58:00,
2013-01-16 22:13:00,46.6,27.0,30.26,SE,138,0.0,2.0,47,0.00,,,0.00,0,weatherlink.com 1.10,2013-01-17 06:13:00,
2013-01-16 22:28:00,47.2,26.0,30.26,SE,144,0.0,3.0,44,0.00,,,0.00,0,weatherlink.com 1.10,2013-01-17 06:28:00,
2013-01-16 22:43:00,48.6,26.0,30.26,North,355,2.0,3.0,41,0.00,,,0.00,0,weatherlink.com 1.10,2013-01-17 06:43:00,
2013-01-16 22:58:00,49.6,25.0,30.26,SSE,157,0.0,4.0,38,0.00,,,0.00,0,weatherlink.com 1.10,2013-01-17 06:58:00,
2013-01-16 23:13:00,49.5,26.0,30.26,SE,128,1.0,2.0,40,0.00,,,0.00,0,weatherlink.com 1.10,2013-01-17 07:13:00,
2013-01-16 23:28:00,49.1,27.0,30.26,NW,313,0.0,2.0,43,0.00,,,0.00,0,weatherlink.com 1.10,2013-01-17 07:28:00,
2013-01-16 23:43:00,48.8,28.0,30.25,SSW,198,0.0,3.0,45,0.00,,,0.00,0,weatherlink.com 1.10,2013-01-17 07:43:00,
2013-01-16 23:58:00,49.0,28.0,30.26,NNW,327,0.0,2.0,45,0.00,,,0.00,0,weatherlink.com 1.10,2013-01-17 07:58:00,